New Richmond, WI

2:00 AM CDT on September 25, 2016 (GMT -0500)
New Richmond Municipal

Weather History for KRNH - July, 2013

Change the Weather History Date:

Thursday, July 4, 2013

  Actual Average (KMSP) Record (KMSP)
Temperature  
Mean Temperature 73 °F 74 °F  
Max Temperature 85 °F 83 °F 101 °F (2012)
Min Temperature 61 °F 64 °F 43 °F (1972)
Degree Days  
Heating Degree Days 0 0  
Month to date heating degree days 0  
Since 1 June heating degree days 44  
Since 1 July heating degree days 0  
Cooling Degree Days 8 9  
Month to date cooling degree days 34  
Year to date cooling degree days 234  
Since 1 June cooling degree days 192  
Growing Degree Days 23 (Base 50)    
Moisture  
Dew Point 56 °F    
Average Humidity 58    
Maximum Humidity 83    
Minimum Humidity 33    
Precipitation  
Precipitation 0.00 in 0.13 in 2.27 in (1900)
Month to date precipitation 0.51  
Year to date precipitation 14.34  
Snow  
Snow 0.00 in 0.00 in 0.00 in ()
Month to date snowfall 0.0  
Since 1 June snowfall 0.0  
Since 1 July snowfall 0.0  
Snow Depth -    
Sea Level Pressure  
Sea Level Pressure 29.95 in    
Wind  
Wind Speed 7 mph (South)    
Max Wind Speed 15 mph    
Max Gust Speed 22 mph    
Visibility 10 miles    
Events      
T = Trace of Precipitation, MM = Missing Value Source: NWS Daily Summary

Daily Weather History Graph

Daily Weather History Graph

Search for Another Location

Airport or City:

Trip Planner

Search our weather history database for the weather conditions in past years. The results will help you decide how hot, cold, wet, or windy it might be!

Date:

Astronomy

Jul. 04, 2013 Rise Set
Actual Time 5:28 AM CDT 9:00 PM CDT
Civil Twilight 4:51 AM CDT 9:37 PM CDT
Nautical Twilight 4:02 AM CDT 10:26 PM CDT
Astronomical Twilight 2:58 AM CDT 11:29 PM CDT
Moon 2:49 AM CDT (7/4) 6:01 PM CDT (7/4)
Length of Visible Light 16h 45m
Length of Day
15h 31m
Waning Crescent, 11% of the Moon is Illuminated
Jul 4
Waning Crescent
Jul 8
New
Jul 15
First Quarter
Jul 22
Full
Jul 29
Last Quarter

Hourly Weather History & Observations

Time (CDT) Temp. Heat Index Dew Point Humidity Pressure Visibility Wind Dir Wind Speed Gust Speed Precip Events Conditions
12:15 AM 63.5 °F - 56.3 °F 77% 29.99 in 10.0 mi SSE 3.5 mph - N/A   Clear
12:35 AM 62.6 °F - 56.3 °F 80% 30.00 in 10.0 mi SE 3.5 mph - N/A   Clear
12:55 AM 61.5 °F - 55.9 °F 82% 30.00 in 10.0 mi SE 4.6 mph - N/A   Clear
1:15 AM 61.3 °F - 55.6 °F 81% 29.99 in 10.0 mi SSE 4.6 mph - N/A   Clear
1:35 AM 61.0 °F - 55.8 °F 83% 29.99 in 10.0 mi SE 4.6 mph - N/A   Clear
1:55 AM 61.0 °F - 55.8 °F 83% 29.99 in 10.0 mi SSE 4.6 mph - N/A   Clear
2:15 AM 61.7 °F - 55.4 °F 80% 29.98 in 10.0 mi South 5.8 mph - N/A   Clear
2:35 AM 61.3 °F - 55.0 °F 80% 29.98 in 10.0 mi South 5.8 mph - N/A   Clear
2:55 AM 61.7 °F - 54.7 °F 78% 29.98 in 10.0 mi South 5.8 mph - N/A   Clear
3:15 AM 61.3 °F - 54.5 °F 78% 29.98 in 10.0 mi South 5.8 mph - N/A   Clear
3:35 AM 61.9 °F - 54.3 °F 76% 29.97 in 10.0 mi South 5.8 mph - N/A   Clear
3:55 AM 61.5 °F - 54.0 °F 76% 29.97 in 10.0 mi South 5.8 mph - N/A   Clear
4:15 AM 61.3 °F - 53.8 °F 76% 29.98 in 10.0 mi South 5.8 mph - N/A   Clear
4:35 AM 61.3 °F - 53.6 °F 76% 29.98 in 10.0 mi South 5.8 mph - N/A   Clear
4:55 AM 61.2 °F - 53.2 °F 75% 29.98 in 10.0 mi South 5.8 mph - N/A   Clear
5:15 AM 61.2 °F - 53.1 °F 75% 29.98 in 10.0 mi SSE 5.8 mph - N/A   Clear
5:35 AM 61.0 °F - 53.2 °F 76% 29.99 in 10.0 mi South 5.8 mph - N/A   Clear
5:55 AM 61.2 °F - 53.2 °F 75% 29.99 in 10.0 mi South 5.8 mph - N/A   Clear
6:15 AM 61.7 °F - 53.8 °F 75% 29.99 in 10.0 mi SSE 4.6 mph - N/A   Clear
6:35 AM 63.1 °F - 54.3 °F 73% 29.99 in 10.0 mi SSE 4.6 mph - N/A   Scattered Clouds
6:55 AM 64.0 °F - 55.2 °F 73% 29.99 in 10.0 mi SSE 6.9 mph - N/A   Scattered Clouds
7:15 AM 66.2 °F - 56.3 °F 70% 29.99 in 10.0 mi South 5.8 mph - N/A   Scattered Clouds
7:35 AM 66.2 °F - 56.7 °F 71% 29.99 in 10.0 mi South 8.1 mph - N/A   Mostly Cloudy
7:55 AM 67.3 °F - 57.2 °F 70% 29.99 in 10.0 mi South 6.9 mph - N/A   Scattered Clouds
8:15 AM 69.1 °F - 58.1 °F 68% 29.99 in 10.0 mi South 6.9 mph - N/A   Clear
8:35 AM 70.9 °F - 58.3 °F 64% 29.99 in 10.0 mi SSW 9.2 mph - N/A   Scattered Clouds
8:55 AM 71.8 °F - 58.1 °F 62% 29.99 in 10.0 mi SSW 10.4 mph - N/A   Clear
9:15 AM 72.1 °F - 58.6 °F 62% 29.99 in 10.0 mi SSW 8.1 mph - N/A   Scattered Clouds
9:35 AM 73.2 °F - 59.2 °F 61% 29.98 in 10.0 mi SSW 6.9 mph - N/A   Scattered Clouds
9:55 AM 73.8 °F - 59.0 °F 60% 29.98 in 10.0 mi SSW 6.9 mph - N/A   Clear
10:15 AM 74.7 °F - 58.3 °F 57% 29.97 in 10.0 mi SSW 8.1 mph - N/A   Clear
10:35 AM 76.3 °F - 59.2 °F 55% 29.97 in 10.0 mi SSW 6.9 mph - N/A   Clear
10:55 AM 77.0 °F - 59.0 °F 54% 29.97 in 10.0 mi South 9.2 mph - N/A   Clear
11:15 AM 76.8 °F - 58.5 °F 53% 29.97 in 10.0 mi South 6.9 mph - N/A   Clear
11:35 AM 78.3 °F - 59.9 °F 53% 29.97 in 10.0 mi South 9.2 mph - N/A   Clear
11:55 AM 78.6 °F - 59.2 °F 51% 29.97 in 10.0 mi SSW 6.9 mph - N/A   Clear
12:15 PM 79.5 °F - 59.7 °F 51% 29.97 in 10.0 mi South 9.2 mph - N/A   Clear
12:35 PM 80.1 °F 80.8 °F 59.2 °F 49% 29.96 in 10.0 mi South 11.5 mph 16.1 mph N/A   Clear
12:55 PM 80.8 °F 81.2 °F 59.0 °F 47% 29.96 in 10.0 mi South 11.5 mph - N/A   Clear
1:15 PM 81.7 °F 82.0 °F 59.5 °F 47% 29.96 in 10.0 mi South 10.4 mph - N/A   Clear
1:35 PM 82.6 °F 82.5 °F 58.8 °F 44% 29.95 in 10.0 mi South 10.4 mph 16.1 mph N/A   Clear
1:55 PM 83.3 °F 83.2 °F 59.5 °F 44% 29.94 in 10.0 mi SW 10.4 mph 16.1 mph N/A   Clear
2:15 PM 83.5 °F 83.1 °F 57.9 °F 42% 29.94 in 10.0 mi SSW 12.7 mph 18.4 mph N/A   Clear
2:35 PM 84.2 °F 83.5 °F 57.4 °F 40% 29.93 in 10.0 mi South 15.0 mph 20.7 mph N/A   Scattered Clouds
2:55 PM 84.4 °F 83.4 °F 56.1 °F 38% 29.94 in 10.0 mi South 11.5 mph 19.6 mph N/A   Scattered Clouds
3:15 PM 84.0 °F 83.0 °F 56.1 °F 38% 29.93 in 10.0 mi SSW 9.2 mph 17.3 mph N/A   Scattered Clouds
3:35 PM 85.1 °F 83.8 °F 55.0 °F 36% 29.93 in 10.0 mi South 13.8 mph 18.4 mph N/A   Scattered Clouds
3:55 PM 85.1 °F 83.3 °F 53.2 °F 33% 29.93 in 10.0 mi South 15.0 mph - N/A   Clear
4:15 PM 85.1 °F - 52.9 °F 33% 29.93 in 10.0 mi South 10.4 mph 19.6 mph N/A   Clear
4:35 PM 85.3 °F - 52.9 °F 33% 29.92 in 10.0 mi SSW 15.0 mph 20.7 mph N/A   Clear
4:55 PM 84.9 °F 83.3 °F 53.6 °F 34% 29.92 in 10.0 mi SSW 12.7 mph 20.7 mph N/A   Clear
5:15 PM 84.7 °F 83.1 °F 53.1 °F 34% 29.92 in 10.0 mi SSW 15.0 mph 18.4 mph N/A   Clear
5:35 PM 84.4 °F - 52.7 °F 33% 29.92 in 10.0 mi SSW 13.8 mph 20.7 mph N/A   Clear
5:55 PM 84.6 °F 83.1 °F 54.3 °F 35% 29.91 in 10.0 mi South 11.5 mph - N/A   Clear
6:15 PM 84.4 °F 82.8 °F 53.4 °F 34% 29.91 in 10.0 mi South 13.8 mph 21.9 mph N/A   Clear
6:35 PM 83.5 °F 82.4 °F 54.5 °F 37% 29.90 in 10.0 mi South 10.4 mph 17.3 mph N/A   Clear
6:55 PM 82.8 °F 81.6 °F 53.4 °F 36% 29.90 in 10.0 mi South 10.4 mph 16.1 mph N/A   Clear
7:15 PM 81.9 °F 81.2 °F 54.5 °F 39% 29.90 in 10.0 mi South 9.2 mph - N/A   Clear
7:35 PM 80.8 °F 80.7 °F 55.6 °F 42% 29.90 in 10.0 mi South 9.2 mph - N/A   Clear
7:55 PM 80.2 °F 80.4 °F 55.8 °F 43% 29.90 in 10.0 mi SSE 10.4 mph - N/A   Clear
8:15 PM 79.2 °F - 56.3 °F 45% 29.90 in 10.0 mi South 6.9 mph - N/A   Clear
8:35 PM 78.1 °F - 56.8 °F 48% 29.90 in 10.0 mi SSE 8.1 mph - N/A   Clear
8:55 PM 76.6 °F - 57.4 °F 51% 29.90 in 10.0 mi SSE 6.9 mph - N/A   Clear
9:15 PM 75.4 °F - 57.2 °F 53% 29.90 in 10.0 mi SSE 5.8 mph - N/A   Clear
9:35 PM 74.7 °F - 57.6 °F 55% 29.91 in 10.0 mi SSE 6.9 mph - N/A   Scattered Clouds
9:55 PM 73.9 °F - 57.6 °F 56% 29.92 in 10.0 mi SSE 6.9 mph - N/A   Scattered Clouds
10:15 PM 73.4 °F - 57.6 °F 58% 29.92 in 10.0 mi SSE 6.9 mph - N/A   Clear
10:35 PM 73.0 °F - 57.6 °F 58% 29.92 in 10.0 mi SSE 6.9 mph - N/A   Clear
10:55 PM 72.5 °F - 57.6 °F 59% 29.93 in 10.0 mi SSE 9.2 mph - N/A   Clear
11:15 PM 72.5 °F - 57.4 °F 59% 29.93 in 10.0 mi SSE 8.1 mph - N/A   Clear
11:35 PM 72.5 °F - 57.4 °F 59% 29.93 in 10.0 mi South 9.2 mph - N/A   Clear
11:55 PM 71.4 °F - 57.4 °F 61% 29.93 in 10.0 mi South 9.2 mph - N/A   Clear